Flag for New Zealand Weather past 2 weeks in Christchurch, New Zealand

Now
64 °F

Sprinkles. Broken clouds.


Feels Like: 64 °F
Forecast: 62 / 71 °F
Wind: 8 mph from Northeast

Location: Christchurch Airport

Current Time: Jan 29, 2015 at 9:19:07 AM

Latest Report: Jan 29, 2015 at 8:30 AM


Visibility: 2 mi

Pressure: 30.01 "Hg

Humidity: 100%

Dew point: 64 °F

Location of ChristchurchLocation

Historic Weather in Christchurch — Graph

°F

Christchurch temperature yesterday

Maximum temperature yesterday: 73 °F (at 3:30 PM)
Minimum temperature yesterday: 59 °F (at 5:00 AM)
Average temperature yesterday: 66 °F

Past Weeks' High & Low Weather Summary

 TemperatureHumidityPressure
High90 °F (Jan 18, 3:00 PM)100% (Jan 14, 8:00 AM)30.33 "Hg (Jan 14, 8:00 AM)
Low39 °F (Jan 22, 5:30 AM)15% (Jan 18, 3:00 PM)29.30 "Hg (Jan 18, 3:30 PM)
Average65 °F71%29.88 "Hg
* Reported Jan 14 8:00 AM — Jan 29 8:00 AM, Christchurch, Weather by CustomWeather, © 2014

Note: Actual official high and low records may vary slightly from our data, if they occured in-between our weather recording intervals... More about our weather records

Advertising

Christchurch weather history for previous 24 hours

 ConditionsComfort  
Time TempWeatherWind HumidityBarometerVisibility
8:00 AM
Jan 29
63 °FDrizzle. Partly sunny.10 mph100%30.01 "Hg1 mi
7:30 AM63 °FDrizzle. Fog.6 mph100%30.01 "Hg1 mi
7:00 AM63 °FDrizzle. Fog.7 mph100%29.98 "Hg1 mi
6:30 AM63 °FRain showers. Cloudy.5 mph100%29.98 "Hg1 mi
6:00 AM63 °FSprinkles. Fog.6 mph100%29.98 "Hg1 mi
5:30 AM63 °FSprinkles. Passing clouds.9 mph100%29.98 "Hg4 mi
5:00 AM64 °FFog.5 mph94%29.98 "Hg3 mi
4:30 AM64 °FOvercast.6 mph94%29.98 "HgN/A
4:00 AM64 °FOvercast.8 mph94%29.98 "HgN/A
3:30 AM64 °FOvercast.9 mph94%29.98 "HgN/A
3:00 AM64 °FPartly cloudy.8 mph88%29.98 "HgN/A
2:30 AM64 °FOvercast.6 mph94%29.98 "HgN/A
2:00 AM64 °FPassing clouds.8 mph94%30.01 "HgN/A
1:30 AM63 °FPassing clouds.9 mph100%29.98 "HgN/A
1:00 AM64 °FPartly cloudy.9 mph94%30.01 "HgN/A
12:30 AM64 °FMostly cloudy.12 mph94%30.01 "HgN/A
12:00 AM64 °FPassing clouds.9 mph94%30.01 "HgN/A
11:30 PM
Jan 28
64 °FPassing clouds.10 mph94%30.01 "HgN/A
11:00 PM64 °FPassing clouds.12 mph94%30.01 "HgN/A
10:30 PM64 °FPassing clouds.13 mph88%29.98 "HgN/A
10:00 PM64 °FPassing clouds.12 mph88%29.98 "HgN/A
9:30 PM64 °FPassing clouds.13 mph88%29.95 "HgN/A
9:00 PM64 °FPassing clouds.15 mph88%29.95 "HgN/A
8:30 PM66 °FPartly sunny.14 mph83%29.95 "HgN/A
8:00 PM66 °FPartly sunny.17 mph83%29.95 "HgN/A
7:30 PM68 °FPassing clouds.17 mph78%29.95 "HgN/A
7:00 PM68 °FPartly sunny.18 mph78%29.95 "HgN/A
6:30 PM70 °FPartly sunny.17 mph73%29.95 "HgN/A
6:00 PM70 °FPartly sunny.17 mph78%29.95 "HgN/A
5:30 PM70 °FPartly sunny.17 mph73%29.95 "HgN/A
5:00 PM70 °FBroken clouds.20 mph73%29.95 "HgN/A
4:30 PM72 °FMostly cloudy.18 mph69%29.95 "HgN/A
4:00 PM73 °FPartly sunny.16 mph65%29.95 "HgN/A
3:30 PM73 °FPartly sunny.15 mph65%29.95 "HgN/A
3:00 PM72 °FBroken clouds.14 mph69%29.95 "HgN/A
2:30 PM72 °FOvercast.15 mph69%29.95 "HgN/A
2:00 PM72 °FPartly sunny.16 mph69%29.95 "HgN/A
1:30 PM72 °FBroken clouds.15 mph73%29.95 "HgN/A
1:00 PM72 °FPartly sunny.13 mph73%29.95 "HgN/A
12:30 PM70 °FPartly sunny.13 mph78%29.98 "HgN/A
12:00 PM70 °FPartly sunny.10 mph73%29.98 "HgN/A
11:30 AM70 °FPartly sunny.9 mph73%29.98 "HgN/A
11:00 AM68 °FMostly cloudy.8 mph78%29.95 "HgN/A
10:30 AM64 °FOvercast.6 mph88%29.95 "HgN/A
10:00 AM64 °FLow clouds.6 mph88%29.95 "HgN/A
9:30 AM64 °FLow clouds.5 mph88%29.95 "HgN/A
9:00 AM64 °FMostly cloudy.3 mph88%29.95 "HgN/A
Weather by CustomWeather, © 2014

See weather overviewHow to use our weather pages